Погода в Серравалле

Сан-Марино     43°58′13″N   12°28′52″E
темп.,
°C
ветер,
м/с
пор.,
м/с
влажн.,
%
обл.,
%
осадки,
мм/ч
давл.,
гПа
погр.,
м
27 ноября, сб
сб2701:00+11ююз3972100 0.0 994464
04:00+9ю3582100 0.1 994124
07:00+11ююз41072100 0.5 993462
10:00+11юз71558100 0.0 9941387
13:00+12юз7146152 0.1 9951344
16:00+11юз41070100 0.1 995757
19:00+10ю4868100 0.1 995259
22:00+10ю497199 0.0 995437
28 ноября, вс
вс2801:00+9зюз2486100 2.6 995286
04:00+10ююз278689 4.4 992523
07:00+8зюз248497 9.1 993283
10:00+9зюз266874 0.0 995756
13:00+10юз2354100 0.0 9931102
16:00+9ю236885 0.1 992140
19:00+6ююз257798 1.3 993480
22:00+6юз37722 0.0 993273
29 ноября, пн
пн2901:00+4зюз23825 0.0 994109
04:00+4юз22785 0.0 99542
07:00+4зсз12786 0.0 99764
10:00+5сз468098 0.3 999583
13:00+5з7108557 1.3 999830
16:00+7с81268100 1.4 10011082
19:00+6ссз71169100 2.3 1005974
22:00+4зсз368279 0.7 1009230
30 ноября, вт
вт3001:00+3з358235 1.0 1011162
04:00+3зюз3571100 0.0 1014127
07:00+2з34610 0.0 1016111
10:00+5зсз35470 0.0 1018332
13:00+8з23380 0.0 1018567
16:00+7ююз12571 0.0 1018117
19:00+4юз33650 0.0 101971
22:00+4юз336599 0.0 101972
1 декабря, ср
ср101:00+4ююз346862 0.0 101976
04:00+4ююз347089 0.0 101872
07:00+4ююз46703 0.0 1018112
10:00+8ю49619 0.0 1017302
13:00+9ююз4966100 0.0 1015506
16:00+7ююз3574100 0.0 1014174
19:00+8ю3577100 0.0 1012126
22:00+7ююз47844 0.0 1011176